AQI (16)

Current Conditions for Foresthill, CA. Dusk, Clear skies, Dry   
Visibility: 10 miles
Space WX Alerts: EXTENDED WARNING:  Geomagnetic K-index of 4 expected ( Latest Alert ) - Issue Time: 2020 Jun 02 0558 UTC

  Summary / Temperature 

Current Temperature
75.8°F
24.3°C
(24/hr Ago)
75.1°F
(Apparent temp)
77.6°F
Comfortable
Heat Index
76.6°F 

81.0°F/ 27.2°C
Little or no discomfort

 Temp Rate:

 24/hr Difference:

 Avg Running Temp:

 Todays High:

 Todays Low:

 Y-days High:

 Y-days Low:

 Todays HeatIdx:

 Y-days HeatIdx:

 Evapotranspiration:

-5.8°F/hr 

+0.7°F

81.7°F

93.7°F 4:37pm

65.6°F 6:34am

91.5°F 4:30pm

65.1°F 5:05am

89.7°F 4:28pm

88.8°F 3:36pm

0.261 in

115' Above Ground

 Temperature:

 6'AGL VRS 115'AGL:

 Avg Running Temp:

 Humidity:

 Todays High:

 Todays Low:

 Y-days High:

 Y-days Low:

83.0°F 

+7.2°F

85.8°F

34% 

90.0°F 4:22pm

69.0°F 3:07am

88.0°F 3:20pm

69.0°F 4:20am

Temp & Humidity Graphs

  Wind 

Wind Speed

 Calm

Gusting to

 None

Calm

250°  

Calm

 Avg speed:

 Wind Run:

 Peak Gust:

Calm 

78.0 miles

  21.0 mph 2:27am

  Almanac  

Moon age: 14 days,0 hours,36 minutes,99%

Full moon
99%
Illuminated
14 days in cycle

 Moonrise:

 Moonset:

 Sunrise:

 Sunset:

 Solar Noon:

7:29pm

4:52am

5:37am

8:24pm

1:02pm

0min 55s more daylight tomorrow 

  Solar Radiation 

(Current Solar)
  14 W/m2
(Todays High)
 963 W/m2@12:54pm
Feels like: 82.2°F in the sun

Rain

 Rain Today:

 Rain Rate (/hr):

 Rain last hour:

 Rain Yesterday:

 This Month:

 Season Total:

4 Days Since Last Rain Day

0.00 in

0.000 in

0.00 in

0.00 in

0.00 in

36.54 in

Updated Time

Updated: 6/4/20  8:08pm

(Updated  sec ago)

Humidity & Barometer

 Humidity:

 Wetbulb:

 Dew Point:

 Barometer:

50% 

63.8°F 

55.8°F 

29.664 inHg 

 Baro Trend:  Steady 
Northern Calif
Preparedness
Fire 
Level 

    UV Index  

(Current UV)
0.0  None
(Todays High) @ 12:55pm
9.1   Very High

National Weather Service Forecast

Tonight

Tonight: Clear
Clear
Friday

Friday: Sunny
Sunny
Friday
Night
Friday Night: Partly Cloudy
Partly Cloudy
Saturday

Saturday: Chance Showers, Thunderstorms
Chance Showers, T-Storms
Saturday
Night
Saturday Night: Chance Showers, Thunderstorms
Chance Showers, T-Storms
Sunday

Sunday: Slight Chance Rain Showers
Slight Chance Rain Showers
Lo 64 °F Hi 82 °F ↓ Lo 52 °F Hi 68 °F Lo 44 °F Hi 60 °F

Foresthill Probe 2 Stats  
Foresthill Probe 2: is located on Thomas Street
at 3000 feet. The main Foresthill Weather site
is located on Melody ln at the 2860 foot elevation

Calm
78.5°F
25.8°C
Temp Rate:
-3.4°F
Calm
Gusting to
None
(Humidity)
46%
Calm
160°  
Updated: 04/06/20 - 20:09:52
 Todays High: 92.4°F 13:58
 Todays Low: 63.6°F 06:31
 Rain Today: 0.00 in
 Season Total: 36.64 in

Foresthill Wx: Monthly,Yearly, Highs and Lows 

Foresthill  
This Weather Data is coming from the main Foresthill
Weather site located on Melody ln at the 2860 foot
elevation
Not Foresthill Probe 2
Weather Data
Month
  High
Month
  Low
Year
High
Year
Low
Temp 93.7°F
6/4/20
55.0°F
6/1/20
94.3°F
5/28/20
28.3°F
2/3/20
Humidity 93%
6/1/20
16%
6/4/20
100%
1/8/20
12%
2/17/20
Heat Index 89.7°F
6/4/20
60.3°F
6/1/20
92.1°F
5/28/20
28.2°F
2/4/20
Wind Chill 93.7°F
6/4/20
53.7°F
6/1/20
94.3°F
5/28/20
14.7°F
2/3/20
Wind Gust 21 mph
6/3/20
0 mph
6/1/20
46 mph
2/9/20
0 mph
1/1/20
Barometer 30.02 in
6/1/20
29.66 in
6/4/20
30.59 in
1/5/20
29.66 in
3/13/20
ET 0.26 in
6/4/20
0.00 in
6/1/20
0.27 in
5/28/20
0.00 in
1/1/20
Dew Point 58.8°F
6/2/20
35.8°F
6/4/20
66.4°F
5/29/20
-2.6°F
2/3/20
Visible Satellite Pacific Satellite US Radar Satellite Imagery Sacramento,CA.  (click to enlarge)
NWS Weather Forecast - Summary
Updated: Thursday, June 4, 2020 - 2:33pm PDT
NWS Weather Forecast: Tonight and Friday (Updated: Thu, 04-Jun-2020 1:41pm PDT)
Tonight

Tonight: Clear
Clear

Lo 64 °F
NWS forecast: Clear, with a low around 64. South southeast wind 2 to 10 mph.
Friday

Friday: Sunny
Sunny

Hi 82 °F ↓
NWS forecast: Sunny. High near 82, with temperatures falling to around 78 in the afternoon. South southeast wind 8 to 12 mph.
YR.NO 10 Day Weather forecast
Last update: 06/04/2020 @ 13:40
Next update: 06/04/2020 @ 19:45
Provided by: 22
      Temperature Precipitation Pressure Wind  
Today
06/04/2020
19:00 00:00 81°F   29.70 inHg Light air from south-southwest 2 mph
    (Click to enlarge)
meteogram

    Forecast for next 9 days

      Temperature Precip Pressure Wind  
Friday
06/05/2020
00:00 06:00 61°F   29.69 inHg Light breeze from east 6 mph
  06:00 12:00 55°F   29.65 inHg Light breeze from east 5 mph
  12:00 18:00 77°F   29.70 inHg Gentle breeze from south-southwest 10 mph
  18:00 00:00 70°F   29.69 inHg Gentle breeze from south-southwest 9 mph
      Temperature Precip Pressure Wind  
Saturday
06/06/2020
00:00 06:00 54°F   29.78 inHg Light breeze from south-southeast 6 mph
  06:00 12:00 48°F   29.85 inHg Light breeze from south-southeast 6 mph
  12:00 18:00 61°F 0.02 in 29.88 inHg Gentle breeze from south-southwest 12 mph
  18:00 00:00 59°F 0.02 in 29.88 inHg Moderate breeze from south-southwest 14 mph
  23:00 05:00 48°F   30.01 inHg Light breeze from south-southwest 6 mph
      Temperature Precip Pressure Wind  
Sunday
06/07/2020
05:00 11:00 43°F   30.08 inHg Light air from south-southeast 2 mph
  11:00 17:00 54°F   30.08 inHg Light breeze from west-northwest 6 mph
  17:00 23:00 59°F   30.05 inHg Gentle breeze from west-northwest 8 mph
  23:00 05:00 43°F   30.09 inHg Light breeze from east 4 mph
      Temperature Precip Pressure Wind  
Monday
06/08/2020
05:00 11:00 37°F   30.10 inHg Light breeze from east-northeast 7 mph
  11:00 17:00 64°F   30.10 inHg Light breeze from west-northwest 6 mph
  17:00 23:00 68°F   30.07 inHg Light breeze from west-northwest 6 mph
  23:00 05:00 48°F   30.11 inHg Light breeze from east-northeast 5 mph
      Temperature Precip Pressure Wind  
Tuesday
06/09/2020
05:00 11:00 45°F   30.07 inHg Light breeze from east-northeast 6 mph
  11:00 17:00 75°F   30.08 inHg Light breeze from west 6 mph
  17:00 23:00 79°F   30.04 inHg Light breeze from west 6 mph
  23:00 05:00 57°F   30.06 inHg Light air from east-northeast 3 mph
      Temperature Precip Pressure Wind  
Wednesday
06/10/2020
05:00 11:00 50°F   30.01 inHg Light breeze from east-northeast 6 mph
  11:00 17:00 81°F   30.00 inHg Light breeze from west 6 mph
  17:00 23:00 82°F   29.93 inHg Light breeze from west-southwest 7 mph
  23:00 05:00 66°F   29.95 inHg Light breeze from east-southeast 4 mph
      Temperature Precip Pressure Wind  
Thursday
06/11/2020
05:00 11:00 55°F   29.90 inHg Light breeze from east 6 mph
  11:00 17:00 77°F   29.91 inHg Light breeze from southwest 7 mph
  17:00 23:00 77°F   29.88 inHg Gentle breeze from southwest 9 mph
  23:00 05:00 59°F   29.94 inHg Light breeze from southeast 6 mph
      Temperature Precip Pressure Wind  
Friday
06/12/2020
05:00 11:00 52°F   29.91 inHg Light breeze from east-southeast 5 mph
  11:00 17:00 68°F < 0.01 in 29.92 inHg Gentle breeze from southwest 8 mph
  17:00 23:00 68°F   29.90 inHg Gentle breeze from southwest 8 mph
  23:00 05:00 52°F 0.02 in 29.94 inHg Light breeze from south-southeast 5 mph
      Temperature Precip Pressure Wind  
Saturday
06/13/2020
05:00 11:00 45°F   30.01 inHg Light breeze from south-southeast 7 mph
  11:00 17:00 55°F < 0.01 in 30.10 inHg Gentle breeze from south 12 mph
  17:00 23:00 57°F   30.13 inHg Light breeze from west-southwest 5 mph

NOAA Local Storm Report
2 MILES SOUTH OF ARBOGA   ( More )
DATE
05/30/2020
TIME
3:45 AM
COUNTY
YUBA
STATE
CA
GEOGRAPHIC
39.02N 121.55W
SOURCE
PUBLIC
HAIL ESTIMATED AT 0.25 INCH
pea sized hail reported in plumas lake, ca around 3:45 am. Pictures sent to us via social media.
How Close Are We To this Month's Temperature Record ?
Updated Thursday, Jun 4, 2020- 8:05:00 PM

Current Temperature: 75.8°F

June's High: Temperature Record 95.1°F - Set on Sat, Jun 8, 2013 - 3:58:00 PM
We are currently 19.3°F Less than this Month's record High

June's Low: Temperature Record 40.8°F - Set on Tue, Jun 5, 2012 - 5:41:00 AM
We are currently 35°F More than this Month's record Low

Weather History For Thursday, June 4, 2020


On this Day - In Weather History ...
Data courtesy of weatherforyou.com
powered by Cumulus v1.9.3 (1059)
Ambient Weather VWS v14.00
Top Website Map Copyright © 2007 - 2020 Foresthillweather.com Never base important decisions on this or any weather information obtained from the Internet